User: anonymous   Login
Location: Berg
(47.2344°N, 9.5296°E)
Time: 03:57:30
(UTC+00:00)
Language:

Cosmos 1626 Rocket - Orbit

View from above orbital plane
View from above orbital plane
View from above satellite
View from above satellite

Ground track
Ground track

The orbit data is extracted from the following two-line orbital elements,

1 15495U 85009B   21107.58785975  .00000085  00000-0  73124-5 0  9996
2 15495  82.5219 315.5444 0020939  33.4324 326.8209 14.83903387936511
Epoch (UTC): 17 April 2021 14:06:31
Eccentricity: 0.0020939
inclination: 82.5219°
perigee height: 602 km
apogee height: 631 km
right ascension of ascending node: 315.5444°
argument of perigee: 33.4324°
revolutions per day: 14.83903387
mean anomaly at epoch: 326.8209°
orbit number at epoch: 93651

The dashed part of the orbit path shows where the satellite is in the earth's shadow,  

DLR